Location: Newark
(22.3060°N, 114.2134°E)
Time: 02:20:38
(UTC+00:00)

Vanguard 2 - Pass Details

Date: 11 August 2021
Orbit: 553 x 2937 km, 32.9° (Epoch: 27 September)

Event Time Altitude Azimuth Distance (km) Brightness Sun altitude
Rises 21:16:32 0° 302° (WNW) 2,761 - -10.2°
Exits shadow 21:16:36 - 302° (WNW) 2,732 10.0 -10.2°
Reaches altitude 10° 21:18:56 10° 313° (NW) 1,819 9.2 -9.7°
Maximum altitude 21:22:29 31° 18° (NNE) 1,002 8.6 -8.9°
Drops below altitude 10° 21:26:28 10° 82° (E) 2,051 11.3 -8.0°
Sets 21:29:21 0° 93° (E) 3,188 12.2 -7.4°
